EHI
0 0 0 0 0 0 0 0 0 0 0 0 0 0 0 0 0 0 0 0 0 0 0 0 0 0 0 0 0 0 0 0 0 0 0 0 0 0
0 0 0 0 0 0 0 0 0 0 0 0 0 0 0 0 0 0 0 0 0 0 0 0 0 0 0 0 0 0 0 0 0 0 0 0 0 0
0 0 0 0 0 0 0 0 0 0 0 0 0 0 0 0 0 0 0 0 0 0 0 0 0 0 0 0 0 0 0 0 0 0 0 0 0 0
0 0 0 0 0 0 0 0 0 0 0 0 0 0 0 0 0 0 0 0 0 0 0 0 0 0 0 0 0 0 0 0 0 0 0 0 0 0
0 0 0 0 0 0 0 0 0 0 0 0 0 0 0 0 0 0 0 0 0 0 0 0 0 0 0 0 0 0 0 0 0 0 0 0 0 0
0 0 0 0 0 0 0 0 0 0 0 0 0 0 0 0 0 0 0 0 0 0 0 0 0 0 0 0 0 0 0 0 0 0 0 0 0 0
0 0 0 0 0 0 0 0 0 0 0 0 0 0 0 0 0 0 0 0 0 0 0 0 0 0 0 0 0 0 0 0 0 0 0 0 0 0
0 0 0 0 0 0 0 0 0 0 0 0 0 0 0 0 0 0 0 0 0 0 0 0 0 0 0 0 0 0 0 0 0 0 0 0 0 0
0 0 0 0 0 0 0 0 0 0 0 0 0 0 0 0 0 0 0 0 0 0 0 0 0 0 0 0 0 0 0 0 0 0 0 0 0 0
0 0 0 0 0 0 0 0 0 0 0 0 0 0 0 0 0 0 0 0 0 0 0 0 0 0 0 0 0 0 0 0 0 0 0 0 0 0
0 0 0 0 0 0 0 0 0 0 0 0 0 0 0 0 0 0 0 0 0 0 0 0 0 0 0 0 0 0 0 0 0 0 0 0 0 0
0 0 0 0 0 0 0 0 0 0 0 0 0 0 0 0 0 0 0 0 0 0 0 0 0 0 0 0 0 0 0 0 0 0 0 0 0 0
0 0 0 0 0 0 0 0 0 0 0 0 0 0 0 0 0 0 0 0 0 0 0 0 0 0 0 0 0 0 0 0 0 0 0 0 0 0
0 0 0 0 0 0 0 0 0 0 0 0 0 0 0 0 0 0 0 0 0 0 0 0 0 0 0 0 0 0 0 0 0 0 0 0 0 0
0 0 0 0 0 0 0 0 0 0 0 0 0 0 0 0 0 0 0 0 0 0 0 0 0 0 0 0 0 0 0 0 0 0 0 0 0 0
0 0 0 0 0 0 0 0 0 0 0 0 0 0 0 0 0 0 0 0 0 0 0 0 0 0 0 0 0 0 0 0 0 0 0 0 0 0
0 0 0 0 0 0 0 0 0 0 0 0 0 0 0 0 0 0 0 0 0 0 0 0 0 0 0 0 0 0 0 0 0 0 0 0 0 0
0 0 0 0 0 0 0 0 0 0 0 0 0 0 0 0 0 0 0 0 0 0 0 0 0 0 0 0 0 0 0 0 0 0 0 0 0 0
0 0 0 0 0 0 0 0 0 0 0 0 0 0 0 0 0 0 0 0 0 0 0 0 0 0 0 0 0 0 0 0 0 0 0 0 0 0
0 0 0 0 0 0 0 0 0 0 0 0 0 0 0 0 0 0 0 0 0 0 0 0 0 0 0 0 0 0 0 0 0 0 0 0 0 0
0 0 0 0 0 0 0 0 0 0 0 0 0 0 0 0 0 0 0 0 0 0 0 0 0 0 0 0 0 0 0 0 0 0 0 0 0 0
0 0 0 0 0 0 0 0 0 0 0 0 0 0 0 0 0 0 0 0 0 0 0 0 0 0 0 0 0 0 0 0 0 0 0 0 0 0
0 0 0 0 0 0 0 0 0 0 0 0 0 0 0 0 0 0 0 0 0 0 0 0 0 0 0 0 0 0 0 0 0 0 0 0 0 0
Wind_Speed
3 3 3 2 2 2 3 3 4 5 6 3 2 2 2 3 5 5 6 9 10 11 12 11 11 11 12 13 13 12 13 12 12 12 12 11 11 10
3 4 4 3 2 2 3 3 3 4 6 3 3 3 3 3 5 5 6 9 10 11 11 10 10 11 12 12 12 12 11 11 11 12 12 11 11 11
3 4 5 4 3 3 3 3 4 4 6 5 3 3 4 4 4 5 5 5 6 10 11 11 10 11 11 11 11 11 11 11 11 12 11 11 10 10
3 3 4 3 4 3 3 4 4 4 5 7 5 3 4 5 5 5 5 5 5 9 11 10 10 10 10 10 10 10 11 11 11 11 11 10 10 9
2 3 3 3 3 3 4 4 4 4 4 5 5 4 4 4 4 5 5 5 5 6 9 10 10 11 10 10 10 9 9 10 11 10 10 10 9 8
1 2 2 3 3 3 3 4 4 4 4 4 4 4 4 3 3 4 5 4 5 5 7 7 9 11 11 11 10 9 9 9 9 9 8 8 8 8
2 2 2 2 4 3 3 3 4 4 4 4 5 4 4 3 4 3 5 5 5 4 4 5 5 5 7 9 9 10 9 9 9 8 8 8 7 7
2 2 3 3 4 5 6 6 5 5 5 4 5 6 6 5 4 4 4 4 5 3 4 5 4 5 5 5 8 9 9 9 9 9 8 8 8 7
3 3 3 3 4 4 5 6 6 7 7 6 6 7 6 5 5 5 5 5 6 4 4 6 3 5 4 5 8 8 8 8 8 8 8 8 8 7
3 3 3 3 4 5 4 4 5 5 6 6 6 7 6 6 6 7 7 5 5 4 3 5 4 4 4 4 7 8 8 8 8 8 8 8 8 7
3 3 4 4 6 7 5 5 6 6 6 8 9 8 8 7 5 3 3 3 4 4 2 2 3 3 3 3 4 7 7 7 8 9 8 8 7 6
3 3 4 5 7 7 4 5 6 6 5 6 6 6 6 5 5 4 4 4 4 4 2 2 2 1 2 2 2 3 4 6 7 8 8 8 7 4
3 3 3 7 8 8 6 4 6 6 5 5 4 4 4 4 4 4 4 4 4 4 3 2 2 1 2 2 2 2 2 1 2 4 6 7 7 5
4 4 4 7 8 7 5 7 8 6 3 3 3 3 4 4 3 4 3 3 4 5 5 3 2 3 2 2 2 2 1 1 1 2 2 4 4 4
4 6 6 7 6 4 6 7 5 3 3 3 3 4 4 4 3 2 2 2 2 2 2 3 3 3 3 3 2 1 1 1 1 2 2 2 2 2
4 4 5 5 4 5 4 4 3 3 3 3 3 3 3 2 2 2 2 1 1 2 2 2 2 2 2 2 2 2 1 2 2 2 2 2 1 2
4 2 2 2 2 2 2 2 2 3 3 3 3 3 3 3 2 1 1 1 1 1 2 2 1 1 1 1 1 2 2 1 2 3 3 2 2 2
3 2 2 3 2 2 3 3 3 3 3 3 3 3 2 3 2 2 1 1 1 1 1 1 0 1 2 3 3 2 2 2 2 2 3 3 2 2
2 2 2 3 3 2 2 3 3 3 3 2 3 3 2 2 2 2 1 1 1 1 1 1 0 1 1 1 3 3 2 2 2 2 2 2 2 2
2 2 2 3 3 2 2 2 2 3 2 2 3 2 2 2 2 2 1 1 1 1 1 1 1 1 1 1 1 2 3 2 3 3 3 3 3 4
2 3 3 3 3 2 2 2 2 2 2 2 2 2 2 2 2 2 2 2 2 1 1 1 2 3 2 3 3 2 3 4 4 3 3 3 3 2
3 3 3 3 3 3 2 2 2 2 2 2 2 2 2 2 1 1 1 1 1 1 2 1 2 2 2 3 3 3 3 3 6 8 7 4 3 3
3 3 3 3 3 3 2 2 2 2 2 2 2 2 2 1 1 1 1 1 1 1 2 2 2 3 3 3 4 3 4 3 3 4 4 5 6 6
Wind_Direction
209 213 222 232 231 237 235 217 224 250 249 237 240 231 245 243 248 245 245 253 256 259 261 264 265 265 263 264 264 264 261 259 256 254 250 250 251 259
216 216 223 224 227 229 232 233 231 244 259 257 268 270 261 271 265 258 252 259 253 256 260 262 262 264 261 257 255 256 256 255 252 250 249 248 250 253
227 224 229 224 221 225 230 229 235 241 260 276 272 272 266 267 265 257 257 253 251 254 257 257 259 260 258 255 253 252 250 247 246 246 248 247 251 252
231 230 238 238 229 231 231 235 238 243 249 270 276 266 261 251 255 257 264 265 256 260 259 257 258 259 258 254 252 250 247 244 241 241 244 243 246 247
241 241 246 237 234 237 238 236 240 257 250 258 269 271 268 253 260 268 266 265 269 264 262 259 257 257 255 253 251 247 244 244 240 238 241 240 238 239
278 253 254 248 242 245 250 245 244 246 249 253 262 268 265 255 251 263 276 265 268 272 263 267 266 258 254 253 250 243 237 239 237 232 232 232 231 233
291 280 275 283 281 272 270 263 256 250 253 258 261 266 266 260 255 262 274 282 274 265 265 262 259 251 242 247 244 236 232 232 235 234 232 231 228 227
278 282 281 273 285 290 286 283 277 261 255 252 261 261 264 263 261 266 272 281 280 251 266 273 262 257 254 243 244 239 234 230 230 232 229 228 224 221
267 271 283 294 302 273 285 295 284 280 264 249 254 257 256 258 255 257 259 266 275 268 263 269 260 260 265 263 247 235 235 232 230 230 228 223 216 213
267 266 271 278 285 299 292 284 276 274 270 256 248 250 250 244 237 242 249 268 286 276 255 260 257 260 272 265 244 231 233 232 230 230 226 216 211 209
272 275 274 268 295 308 295 281 280 281 288 288 282 275 271 269 268 258 257 261 284 278 253 250 265 283 274 259 255 240 233 235 229 226 222 211 203 198
286 278 287 296 305 310 288 280 281 284 292 290 288 285 268 258 260 234 227 243 267 267 242 232 250 268 279 277 272 248 228 229 224 218 208 196 185 176
292 287 288 309 309 308 303 281 291 301 287 282 281 285 282 259 241 238 231 227 238 254 227 226 249 243 227 278 284 266 234 231 205 199 192 185 181 171
289 286 291 308 310 311 305 308 314 312 290 287 284 284 287 281 273 263 255 255 248 253 236 225 231 222 223 251 259 262 269 222 156 139 141 159 165 166
297 308 311 317 314 303 310 321 319 299 290 287 287 290 290 286 290 302 309 294 298 287 257 253 237 224 226 227 222 213 216 219 156 136 133 139 146 144
307 309 319 316 308 308 309 304 293 293 303 294 297 292 300 301 294 301 299 305 332 333 332 310 259 224 239 232 195 182 158 168 166 146 134 128 128 133
319 311 312 307 295 293 293 291 295 305 314 314 308 310 312 309 307 309 292 304 310 300 319 341 359 38 52 175 169 160 140 120 144 139 130 130 140 150
330 315 313 310 300 303 309 311 311 313 319 319 311 311 309 308 312 320 316 313 311 302 304 307 91 77 56 33 36 134 130 126 125 128 120 125 126 115
340 317 309 304 306 307 310 311 312 318 323 323 319 319 320 323 323 322 338 348 328 311 319 324 347 120 122 75 14 26 110 128 127 117 112 104 118 125
337 321 315 312 311 311 310 313 321 325 330 331 328 325 327 333 335 336 346 355 338 342 350 5 9 15 127 143 118 30 37 108 127 123 104 84 77 87
331 330 326 323 322 322 316 314 318 319 328 328 326 330 329 332 336 339 349 3 20 41 31 6 359 11 62 87 86 67 46 54 80 111 117 108 100 98
322 318 318 321 321 316 312 313 311 314 324 324 321 325 324 323 331 345 360 13 24 42 44 34 29 37 62 92 99 99 82 64 62 69 69 85 129 148
315 312 309 309 310 307 298 302 309 312 318 316 316 321 325 327 337 349 7 24 46 63 65 64 53 55 65 87 100 99 92 85 79 72 57 61 83 94